Regional Weather Roundup
Issued by NWS Goodland, KS

Home | Current Version | Previous Version | Graphics & Text | Print | Product List | Glossary On
Versions: 1 2 3 4 5 6 7 8 9 10 11 12 13 14 15 16 17 18 19 20 21 22 23 24 25 26 27 28 29 30 31 32 33 34 35 36 37 38 39 40 41 42 43 44 45 46 47 48 49 50
000
ASUS43 KGLD 180808
RWRGLD

GOODLAND FORECAST AREA HOURLY WEATHER ROUNDUP
NATIONAL WEATHER SERVICE GOODLAND KS
100 AM MST SUN FEB 18 2018

...OFFICIAL OBSERVATIONS...

CITY           SKY/WX    TMP DP  RH WIND       PRES   REMARKS
GOODLAND KS    PTCLDY    38  14  37 S23G36    29.76F
HILL CITY KS   CLOUDY    41  14  33 S13G24    29.92F
IMPERIAL NEB   CLEAR     37  18  46 S15       29.73F
MCCOOK NEB     CLEAR     40  17  39 MISG      29.81F
AKRON CO       CLEAR     37  16  42 S12       29.71F
BURLINGTON CO  PTCLDY    37  15  40 S21       29.77F
LIMON CO       MOCLDY    37  14  38 SW15      29.78F
$$

...UNOFFICIAL OBSERVATIONS...

CITY           SKY/WX    TMP DP  RH WIND       PRES   REMARKS
COLBY KS       PTCLDY    37  18  44 S21G28    29.82F
LENORA KS        N/A     41  32  70 S20G28      N/A
NORTON KS      CLEAR     39   9  28 S22G29    29.85
SHARON SPRINGS   N/A     40  19  42 S21G35      N/A
TRENTON NEB      N/A     38  32  79 S12G18      N/A
KIT CARSON CO    N/A     32  14  46 MISG        N/A
$$




USA.gov is the U.S. government's official web portal to all federal, state and local government web resources and services.